Time,TemperatureF,DewpointF,PressureIn,WindDirection,WindDirectionDegrees,WindSpeedMPH,WindSpeedGustMPH,Humidity,HourlyPrecipIn,Conditions,Clouds,dailyrainin,SolarRadiationWatts/m^2,SoftwareType,DateUTC
2013-03-05 00:01:00,4.9,2.0,30.74,NW,317,3.0,6.0,87,0.00,,,0.00,0,weatherlink.com 1.10,2013-03-05 07:01:00,
2013-03-05 00:31:00,4.9,2.0,30.75,NW,315,0.0,3.0,88,0.00,,,0.00,0,weatherlink.com 1.10,2013-03-05 07:31:00,
2013-03-05 01:01:00,5.0,3.0,30.75,NW,323,1.0,4.0,89,0.00,,,0.00,0,weatherlink.com 1.10,2013-03-05 08:01:00,
2013-03-05 01:31:00,2.2,-1.0,30.75,SE,135,0.0,5.0,86,0.00,,,0.00,0,weatherlink.com 1.10,2013-03-05 08:31:00,
2013-03-05 02:01:00,3.7,1.0,30.76,SE,135,0.0,1.0,89,0.00,,,0.00,0,weatherlink.com 1.10,2013-03-05 09:01:00,
2013-03-05 02:32:00,2.5,0.0,30.76,SE,132,1.0,2.0,88,0.00,,,0.00,0,weatherlink.com 1.10,2013-03-05 09:32:00,
2013-03-05 03:02:00,1.0,-2.0,30.76,NE,51,0.0,1.0,86,0.00,,,0.00,0,weatherlink.com 1.10,2013-03-05 10:02:00,
2013-03-05 03:32:00,0.9,-2.0,30.76,ENE,58,0.0,2.0,87,0.00,,,0.00,0,weatherlink.com 1.10,2013-03-05 10:32:00,
2013-03-05 04:02:00,0.2,-3.0,30.76,NNW,337,0.0,2.0,86,0.00,,,0.00,0,weatherlink.com 1.10,2013-03-05 11:02:00,
2013-03-05 04:16:00,-0.1,-3.0,30.76,NNW,336,0.0,1.0,86,0.00,,,0.00,0,weatherlink.com 1.10,2013-03-05 11:16:00,
2013-03-05 04:31:00,-0.6,-4.0,30.77,NNW,336,0.0,2.0,86,0.00,,,0.00,0,weatherlink.com 1.10,2013-03-05 11:31:00,
2013-03-05 04:46:00,-1.1,-4.0,30.77,NW,311,0.0,2.0,86,0.00,,,0.00,0,weatherlink.com 1.10,2013-03-05 11:46:00,
2013-03-05 05:01:00,-1.2,-4.0,30.77,NW,311,0.0,2.0,86,0.00,,,0.00,0,weatherlink.com 1.10,2013-03-05 12:01:00,
2013-03-05 05:16:00,-1.1,-4.0,30.78,NW,311,0.0,1.0,87,0.00,,,0.00,0,weatherlink.com 1.10,2013-03-05 12:16:00,
2013-03-05 05:32:00,-0.5,-3.0,30.79,NW,311,0.0,1.0,87,0.00,,,0.00,0,weatherlink.com 1.10,2013-03-05 12:32:00,
2013-03-05 05:47:00,-0.6,-4.0,30.78,NNE,29,0.0,2.0,86,0.00,,,0.00,0,weatherlink.com 1.10,2013-03-05 12:47:00,
2013-03-05 06:01:00,-0.8,-4.0,30.78,NNE,29,0.0,0.0,86,0.00,,,0.00,0,weatherlink.com 1.10,2013-03-05 13:01:00,
2013-03-05 06:17:00,-0.4,-3.0,30.78,NNE,29,0.0,0.0,87,0.00,,,0.00,0,weatherlink.com 1.10,2013-03-05 13:17:00,
2013-03-05 06:32:00,-0.8,-4.0,30.79,NNE,31,0.0,1.0,86,0.00,,,0.00,0,weatherlink.com 1.10,2013-03-05 13:32:00,
2013-03-05 06:47:00,-0.4,-3.0,30.79,NNE,31,0.0,0.0,87,0.00,,,0.00,11,weatherlink.com 1.10,2013-03-05 13:47:00,
2013-03-05 07:02:00,0.6,-2.0,30.78,West,260,0.0,3.0,87,0.00,,,0.00,19,weatherlink.com 1.10,2013-03-05 14:02:00,
2013-03-05 07:17:00,2.3,0.0,30.78,West,260,0.0,0.0,88,0.00,,,0.00,37,weatherlink.com 1.10,2013-03-05 14:17:00,
2013-03-05 07:32:00,2.9,0.0,30.79,West,263,0.0,2.0,87,0.00,,,0.00,70,weatherlink.com 1.10,2013-03-05 14:32:00,
2013-03-05 07:47:00,3.3,0.0,30.79,West,263,0.0,0.0,86,0.00,,,0.00,105,weatherlink.com 1.10,2013-03-05 14:47:00,
2013-03-05 08:02:00,4.3,1.0,30.80,North,10,1.0,3.0,85,0.00,,,0.00,149,weatherlink.com 1.10,2013-03-05 15:02:00,
2013-03-05 08:17:00,4.2,1.0,30.79,NE,44,0.0,2.0,85,0.00,,,0.00,185,weatherlink.com 1.10,2013-03-05 15:17:00,
2013-03-05 08:33:00,6.2,3.0,30.79,NE,44,1.0,2.0,87,0.00,,,0.00,232,weatherlink.com 1.10,2013-03-05 15:33:00,
2013-03-05 08:47:00,6.4,3.0,30.79,ESE,110,1.0,5.0,86,0.00,,,0.00,276,weatherlink.com 1.10,2013-03-05 15:47:00,
2013-03-05 09:18:00,7.8,4.0,30.79,SE,137,3.0,4.0,83,0.00,,,0.00,359,weatherlink.com 1.10,2013-03-05 16:18:00,
2013-03-05 09:33:00,8.1,5.0,30.78,East,94,5.0,7.0,85,0.00,,,0.00,401,weatherlink.com 1.10,2013-03-05 16:33:00,
2013-03-05 09:48:00,9.5,6.0,30.78,SE,138,3.0,6.0,86,0.00,,,0.00,441,weatherlink.com 1.10,2013-03-05 16:48:00,
2013-03-05 10:03:00,10.6,7.0,30.77,ESE,117,4.0,5.0,85,0.00,,,0.00,494,weatherlink.com 1.10,2013-03-05 17:03:00,
2013-03-05 10:51:00,12.8,8.0,30.77,East,85,6.0,7.0,82,0.00,,,0.00,571,weatherlink.com 1.10,2013-03-05 17:51:00,
2013-03-05 11:03:00,13.2,9.0,30.78,SE,140,4.0,7.0,83,0.00,,,0.00,591,weatherlink.com 1.10,2013-03-05 18:03:00,
2013-03-05 11:18:00,14.2,9.0,30.78,East,98,6.0,8.0,81,0.00,,,0.00,606,weatherlink.com 1.10,2013-03-05 18:18:00,
2013-03-05 11:34:00,14.4,10.0,30.77,SSE,148,5.0,9.0,82,0.00,,,0.00,633,weatherlink.com 1.10,2013-03-05 18:34:00,
2013-03-05 11:48:00,14.8,10.0,30.76,East,85,6.0,8.0,81,0.00,,,0.00,631,weatherlink.com 1.10,2013-03-05 18:48:00,
2013-03-05 12:04:00,15.1,11.0,30.75,SE,132,3.0,10.0,82,0.00,,,0.00,649,weatherlink.com 1.10,2013-03-05 19:04:00,
2013-03-05 12:19:00,15.6,11.0,30.75,SE,145,8.0,9.0,82,0.00,,,0.00,659,weatherlink.com 1.10,2013-03-05 19:19:00,
2013-03-05 12:34:00,15.7,11.0,30.75,East,89,6.0,9.0,81,0.00,,,0.00,656,weatherlink.com 1.10,2013-03-05 19:34:00,
2013-03-05 12:49:00,16.4,12.0,30.75,SE,138,8.0,9.0,81,0.00,,,0.00,640,weatherlink.com 1.10,2013-03-05 19:49:00,
2013-03-05 13:04:00,16.6,12.0,30.73,SE,129,9.0,10.0,82,0.00,,,0.00,640,weatherlink.com 1.10,2013-03-05 20:04:00,
2013-03-05 13:19:00,17.2,12.0,30.72,East,94,6.0,11.0,81,0.00,,,0.00,626,weatherlink.com 1.10,2013-03-05 20:19:00,
2013-03-05 13:34:00,17.7,13.0,30.72,SE,129,10.0,11.0,81,0.00,,,0.00,612,weatherlink.com 1.10,2013-03-05 20:34:00,
2013-03-05 13:50:00,17.8,13.0,30.72,ESE,121,8.0,10.0,80,0.00,,,0.00,573,weatherlink.com 1.10,2013-03-05 20:50:00,
2013-03-05 14:04:00,18.3,13.0,30.70,ESE,107,10.0,13.0,79,0.00,,,0.00,575,weatherlink.com 1.10,2013-03-05 21:04:00,
2013-03-05 14:19:00,18.6,13.0,30.70,SE,138,8.0,12.0,80,0.00,,,0.00,554,weatherlink.com 1.10,2013-03-05 21:19:00,
2013-03-05 14:35:00,19.1,14.0,30.70,ESE,107,9.0,10.0,79,0.00,,,0.00,559,weatherlink.com 1.10,2013-03-05 21:35:00,
2013-03-05 14:50:00,18.9,13.0,30.70,SE,132,6.0,12.0,78,0.00,,,0.00,490,weatherlink.com 1.10,2013-03-05 21:50:00,
2013-03-05 15:05:00,19.1,14.0,30.69,SE,135,10.0,11.0,80,0.00,,,0.00,455,weatherlink.com 1.10,2013-03-05 22:05:00,
2013-03-05 15:20:00,19.4,14.0,30.69,ESE,121,8.0,14.0,79,0.00,,,0.00,401,weatherlink.com 1.10,2013-03-05 22:20:00,
2013-03-05 15:35:00,19.4,14.0,30.69,East,98,7.0,13.0,78,0.00,,,0.00,360,weatherlink.com 1.10,2013-03-05 22:35:00,
2013-03-05 15:50:00,19.0,14.0,30.68,ESE,114,10.0,15.0,80,0.00,,,0.00,334,weatherlink.com 1.10,2013-03-05 22:50:00,
2013-03-05 16:05:00,18.7,13.0,30.68,East,81,11.0,17.0,79,0.00,,,0.00,255,weatherlink.com 1.10,2013-03-05 23:05:00,
2013-03-05 16:20:00,16.5,13.0,30.67,East,96,9.0,18.0,84,0.00,,,0.00,125,weatherlink.com 1.10,2013-03-05 23:20:00,
2013-03-05 16:36:00,16.5,13.0,30.68,ESE,103,7.0,15.0,85,0.00,,,0.00,139,weatherlink.com 1.10,2013-03-05 23:36:00,
2013-03-05 16:50:00,16.5,13.0,30.67,SE,140,7.0,13.0,85,0.00,,,0.00,114,weatherlink.com 1.10,2013-03-05 23:50:00,
2013-03-05 17:05:00,16.2,12.0,30.66,East,98,6.0,17.0,84,0.00,,,0.00,77,weatherlink.com 1.10,2013-03-06 00:05:00,
2013-03-05 17:21:00,15.6,12.0,30.66,East,96,9.0,13.0,85,0.00,,,0.00,42,weatherlink.com 1.10,2013-03-06 00:21:00,
2013-03-05 17:36:00,14.9,12.0,30.66,East,101,11.0,13.0,86,0.00,,,0.00,18,weatherlink.com 1.10,2013-03-06 00:36:00,
2013-03-05 17:51:00,13.4,10.0,30.67,ESE,115,9.0,11.0,86,0.00,,,0.00,0,weatherlink.com 1.10,2013-03-06 00:51:00,
2013-03-05 18:06:00,12.8,10.0,30.67,ESE,104,9.0,11.0,87,0.00,,,0.00,0,weatherlink.com 1.10,2013-03-06 01:06:00,
2013-03-05 18:21:00,12.4,9.0,30.66,East,100,8.0,11.0,87,0.00,,,0.00,0,weatherlink.com 1.10,2013-03-06 01:21:00,
2013-03-05 18:36:00,11.8,9.0,30.66,East,85,6.0,13.0,87,0.00,,,0.00,0,weatherlink.com 1.10,2013-03-06 01:36:00,
2013-03-05 18:52:00,11.5,8.0,30.67,ESE,105,8.0,10.0,87,0.00,,,0.00,0,weatherlink.com 1.10,2013-03-06 01:52:00,
2013-03-05 19:06:00,11.0,8.0,30.67,East,90,5.0,10.0,87,0.00,,,0.00,0,weatherlink.com 1.10,2013-03-06 02:06:00,
2013-03-05 19:22:00,10.7,8.0,30.66,East,84,8.0,10.0,88,0.00,,,0.00,0,weatherlink.com 1.10,2013-03-06 02:22:00,
2013-03-05 19:37:00,10.5,8.0,30.66,ESE,111,9.0,11.0,88,0.00,,,0.00,0,weatherlink.com 1.10,2013-03-06 02:37:00,
2013-03-05 20:07:00,10.5,8.0,30.66,East,86,9.0,14.0,88,0.00,,,0.00,0,weatherlink.com 1.10,2013-03-06 03:07:00,
2013-03-05 20:21:00,10.5,8.0,30.66,East,94,8.0,12.0,88,0.00,,,0.00,0,weatherlink.com 1.10,2013-03-06 03:21:00,
2013-03-05 20:37:00,10.8,8.0,30.66,East,92,8.0,13.0,88,0.00,,,0.00,0,weatherlink.com 1.10,2013-03-06 03:37:00,
2013-03-05 20:51:00,10.9,8.0,30.65,SE,140,6.0,14.0,87,0.00,,,0.00,0,weatherlink.com 1.10,2013-03-06 03:51:00,
2013-03-05 21:07:00,10.8,8.0,30.65,East,101,7.0,10.0,87,0.00,,,0.00,0,weatherlink.com 1.10,2013-03-06 04:07:00,
2013-03-05 21:22:00,10.6,8.0,30.65,East,99,10.0,14.0,88,0.00,,,0.00,0,weatherlink.com 1.10,2013-03-06 04:22:00,
2013-03-05 21:37:00,10.5,8.0,30.64,SSE,147,9.0,16.0,88,0.00,,,0.00,0,weatherlink.com 1.10,2013-03-06 04:37:00,
2013-03-05 21:52:00,10.4,8.0,30.64,ESE,119,9.0,14.0,88,0.00,,,0.00,0,weatherlink.com 1.10,2013-03-06 04:52:00,
2013-03-05 22:07:00,10.3,8.0,30.63,ESE,118,13.0,13.0,88,0.00,,,0.00,0,weatherlink.com 1.10,2013-03-06 05:07:00,
2013-03-05 22:23:00,10.3,8.0,30.64,ENE,78,8.0,15.0,88,0.00,,,0.00,0,weatherlink.com 1.10,2013-03-06 05:23:00,
2013-03-05 22:52:00,10.1,7.0,30.62,SE,125,7.0,11.0,88,0.00,,,0.00,0,weatherlink.com 1.10,2013-03-06 05:52:00,
2013-03-05 23:07:00,9.9,7.0,30.62,East,95,8.0,13.0,88,0.00,,,0.00,0,weatherlink.com 1.10,2013-03-06 06:07:00,
2013-03-05 23:22:00,9.7,7.0,30.62,ESE,116,9.0,13.0,88,0.00,,,0.00,0,weatherlink.com 1.10,2013-03-06 06:22:00,
2013-03-05 23:37:00,9.5,7.0,30.61,SE,144,6.0,9.0,88,0.00,,,0.00,0,weatherlink.com 1.10,2013-03-06 06:37:00,
2013-03-05 23:52:00,9.5,7.0,30.61,ESE,120,8.0,11.0,88,0.00,,,0.00,0,weatherlink.com 1.10,2013-03-06 06:52:00,